Flag for India Weather past 2 weeks in Nadiad, Gujarat, India

Now
88 °F

Clear.


Feels Like: 87 °F
Forecast: 79 / 109 °F
Wind: 8 mph from West

Location: Ahmadabad Airport

Current Time: Apr 27, 2015 at 3:23:48 AM

Latest Report: Apr 27, 2015 at 2:40 AM


Visibility: 2 mi

Pressure: 29.74 "Hg

Humidity: 38%

Dew point: 59 °F

Location of NadiadLocation

Historic Weather in Nadiad — Graph

°F

Nadiad temperature yesterday

Maximum temperature yesterday: 109 °F (at 3:10 PM)
Minimum temperature yesterday: 81 °F (at 3:40 AM)
Average temperature yesterday: 93 °F

Past Weeks' High & Low Weather Summary

 TemperatureHumidityPressure
High113 °F (Apr 18, 2:40 PM)83% (Apr 12, 5:40 PM)29.95 "Hg (Apr 12, 5:40 PM)
Low68 °F (Apr 12, 5:40 PM)10% (Apr 22, 3:10 PM)29.56 "Hg (Apr 18, 5:10 PM)
Average93 °F37%29.76 "Hg
* Reported Apr 12 3:10 AM — Apr 27 2:10 AM, Nadiad, Weather by CustomWeather, © 2015

Note: Actual official high and low records may vary slightly from our data, if they occured in-between our weather recording intervals... More about our weather records

Advertising

Nadiad weather history for previous 24 hours

 ConditionsComfort  
Time TempWeatherWind HumidityBarometerVisibility
2:10 AM
Mon, Apr 27
84 °FHaze.5 mph62%29.74 "Hg2 mi
1:40 AM84 °FHaze.6 mph66%29.74 "Hg2 mi
1:10 AM84 °FHaze.6 mph66%29.74 "Hg2 mi
12:40 AM84 °FClear.7 mph66%29.74 "Hg2 mi
12:10 AM88 °FClear.3 mph59%29.74 "Hg2 mi
11:40 PM
Sun, Apr 26
86 °FClear.6 mph62%29.74 "Hg2 mi
11:10 PM88 °FClear.7 mph55%29.74 "Hg2 mi
10:40 PM90 °FClear.12 mph52%29.74 "Hg2 mi
9:40 PM93 °FClear.8 mph56%29.71 "Hg2 mi
8:40 PM95 °FClear.12 mph53%29.71 "Hg2 mi
8:10 PM100 °FClear.6 mph37%29.68 "Hg2 mi
7:40 PM102 °FClear.5 mph31%29.71 "Hg2 mi
6:40 PM106 °FClear.6 mph26%29.65 "Hg3 mi
6:10 PM108 °FClear.3 mph23%29.65 "Hg3 mi
4:40 PM109 °FClear.7 mph19%29.65 "Hg3 mi
4:10 PM109 °FClear.6 mph22%29.65 "Hg3 mi
3:40 PM109 °FClear.9 mph23%29.65 "Hg3 mi
3:10 PM109 °FClear.7 mph21%29.68 "Hg3 mi
2:40 PM108 °FClear.7 mph26%29.71 "Hg3 mi
2:10 PM106 °FClear.9 mph28%29.71 "Hg3 mi
1:40 PM104 °FClear.9 mph31%29.74 "Hg3 mi
1:10 PM102 °FClear.8 mph31%29.74 "Hg3 mi
11:40 AM99 °FClear.9 mph35%29.80 "Hg3 mi
11:10 AM95 °FClear.3 mph44%29.80 "Hg3 mi
10:40 AM93 °FClear.3 mph47%29.83 "Hg3 mi
9:10 AM86 °FClear.6 mph66%29.83 "Hg2 mi
8:40 AM84 °FClear.5 mph66%29.83 "Hg2 mi
8:10 AM82 °FHaze.7 mph70%29.83 "Hg2 mi
7:40 AM81 °FHaze.7 mph70%29.80 "Hg2 mi
6:40 AM81 °FClear.3 mph58%29.77 "Hg2 mi
5:40 AM81 °FClear.7 mph51%29.74 "Hg2 mi
5:10 AM81 °FClear.3 mph54%29.74 "Hg2 mi
4:40 AM81 °FHaze.5 mph58%29.71 "Hg2 mi
4:10 AM81 °FHaze.3 mph66%29.71 "Hg2 mi
3:40 AM81 °FHaze.5 mph70%29.71 "Hg2 mi
Weather by CustomWeather, © 2015

See weather overviewHow to use our weather pages